#timestamp,LO_Frequency,Hit 
1600876815.6,286047001.1,N
1600876835.4,286047001.1,N
1600876855.2,286046998.3,N
1600876875.1,286047001.0,N
1600876876.0,286047001.0,N
1600876895.8,286046998.6,N
1600876915.6,286047001.2,N
1600876935.5,286046998.6,N
1600876955.3,286047001.0,N
1600876975.1,286046998.5,N
1600876995.9,286047000.9,N
1600877015.7,286046998.4,N
1600877035.5,286046998.8,N
1600877055.4,286046998.2,N
1600877075.2,286047000.8,N
1600877095.0,286047001.2,N
1600877095.9,286047001.2,N
1600877115.8,286046998.9,N
1600877135.6,286047001.2,N
1600877155.4,286046998.3,N
1600877175.3,286046998.7,N
1600877195.1,286047001.0,N
1600877215.8,286046998.8,N
1600877235.7,286046998.1,N
1600877255.5,286046999.4,N
1600877275.3,286046998.9,N
1600877295.2,286046999.4,N
1600877315.9,286046998.4,N
1600877335.7,286046998.7,N
1600877355.6,286046998.2,N
1600877375.4,286046999.1,N
1600877395.2,286047001.1,N
1600877415.1,286046998.1,N
1600877416.0,286046998.1,N
1600877435.8,286046998.2,N
1600877455.6,286046998.4,N
1600877475.5,286046999.0,N
1600877495.3,286046999.3,N
1600877515.1,286046999.1,N
1600877535.9,286046997.0,N
1600877555.7,286046998.3,N
1600877575.5,286046998.3,N
1600877595.3,286046998.4,N
1600877615.2,286046999.3,N
1600877635.0,286046998.3,N
1600877635.9,286046998.3,N
1600877655.7,286046998.6,N
1600877675.6,286046998.5,N
1600877695.4,286046998.1,N
1600877715.3,286046996.5,P
1600877735.1,286047000.7,N
1600877736.0,286047000.7,N
1600877755.8,286046998.2,N
1600877775.7,286046999.8,N
1600877795.5,286047001.0,N
1600877815.3,286047000.9,N
1600877835.1,286046998.3,N
1600877855.9,286047000.9,N
1600877875.7,286047000.6,N
1600877895.5,286047000.1,N
1600877915.4,286047000.5,N
1600877935.2,286047000.3,N
1600877955.0,286047001.0,N
1600877955.9,286047001.0,N
1600877975.8,286047001.2,N
1600877995.6,286046998.3,N
1600878015.4,286047000.9,N
1600878035.3,286046998.1,N
1600878055.1,286047000.7,N
1600878075.8,286047000.0,N
1600878095.7,286047001.2,N
1600878115.5,286047000.9,N
1600878135.3,286047000.3,N
1600878155.2,286047000.0,N
1600878175.9,286046998.4,N
1600878195.7,286046998.9,N
1600878215.6,286046999.4,N
1600878235.4,286047001.2,N
1600878255.2,286046999.1,N
1600878275.1,286046998.6,N
1600878276.0,286046998.6,N
1600878295.8,286046999.4,N
1600878315.6,286046998.3,N
1600878335.5,286046999.5,N
1600878355.3,286046998.9,N
1600878375.1,286047001.0,N
1600878395.9,286046998.6,N
1600878415.7,286047000.5,N
1600878435.5,286046998.3,N
1600878455.3,286047000.9,N
1600878475.2,286046998.2,N
1600878495.0,286046998.8,N
1600878495.9,286046998.8,N
1600878515.7,286046998.8,N
1600878535.6,286047000.7,N
1600878555.4,286046998.8,N
1600878575.2,286046998.2,N
1600878595.1,286046998.9,N
1600878596.0,286046998.9,N
1600878615.8,286047000.7,N
1600878635.6,286047000.3,N
1600878655.5,286047000.5,N
1600878675.3,286046999.9,N
1600878695.1,286047000.9,N
1600878715.9,286047002.8,N
1600878735.7,286047001.6,N
1600878755.5,286047001.8,N
1600878775.4,286047003.4,N
1600878795.2,286047003.8,N
1600878815.0,286047004.4,N
1600878815.9,286047004.4,N
1600878835.8,286047003.2,N
1600878855.6,286047005.8,P
1600878875.4,286047003.3,N
1600878895.3,286047005.6,N
1600878915.1,286047004.3,N
1600878935.8,286047004.4,N
1600878955.7,286047003.5,N
1600878975.5,286047004.1,N
1600878995.3,286047004.1,N
1600879015.2,286047004.2,N
1600879035.9,286047003.5,N
1600879055.7,286047002.0,N
1600879075.6,286047001.7,N
1600879095.4,286047002.0,N
1600879115.2,286047004.3,N
1600879135.1,286047004.2,N
1600879136.0,286047004.2,P
1600879155.8,286046998.5,P
1600879175.6,286046998.3,N
1600879195.5,286046998.7,N
1600879215.3,286046999.4,N
1600879235.1,286046998.5,N
1600879255.9,286046999.6,N
1600879275.7,286046998.9,N
1600879295.5,286046997.3,N
1600879315.4,286046998.8,N
1600879335.2,286046997.6,N
1600879355.0,286046996.5,N
1600879355.9,286046996.5,N
1600879375.8,286046997.1,N
1600879395.6,286046997.2,N
1600879415.4,286046996.9,N
1600879435.2,286046999.1,N
1600879455.1,286046997.6,N
1600879456.0,286046997.6,N
1600879475.8,286046997.0,N
1600879495.6,286046997.1,N
1600879515.5,286046997.6,N
1600879535.3,286046995.2,N
1600879555.1,286046996.5,N
1600879575.9,286046996.8,N
1600879595.7,286046999.0,N
1600879615.5,286046998.7,N
1600879635.4,286047000.4,N
1600879655.2,286046998.2,N
1600879675.0,286047001.0,N
1600879675.9,286047001.0,N
1600879695.8,286047002.3,N
1600879715.6,286047000.1,N
1600879735.4,286047002.0,N
1600879755.3,286047001.9,N
1600879775.1,286047003.5,N
1600879795.8,286047003.9,N
1600879815.7,286047004.2,N
1600879835.5,286047001.7,N
1600879855.3,286047001.5,N
1600879875.2,286047002.2,N
1600879895.9,286047001.3,N
1600879915.7,286047002.0,N
1600879935.6,286047001.5,N
1600879955.4,286047002.1,N
1600879975.2,286047002.6,N
1600879995.1,286047002.7,N
1600879996.0,286047002.7,N
1600880015.8,286047002.8,N
1600880035.6,286047000.2,N
1600880055.5,286047002.8,N
1600880075.3,286047000.4,N
1600880095.1,286047000.8,N
1600880115.9,286047000.0,N
1600880135.7,286047000.5,N
1600880155.5,286046999.9,N
1600880175.3,286047000.7,N
1600880195.2,286046998.5,N
1600880215.0,286047001.1,N
1600880215.9,286047001.1,N
1600880235.7,286046998.8,N
1600880255.6,286046998.9,N
1600880275.4,286046998.5,N
1600880295.2,286047000.3,N
1600880315.1,286046998.8,N
1600880316.0,286046998.8,N
1600880335.8,286046998.2,N
1600880355.6,286046998.6,N
1600880375.5,286046998.6,N
1600880395.3,286046998.9,N
